Weather History for KRKD - June, 2013

Change the Weather History Date:

Wednesday, June 12, 2013

  Actual Average Record
Temperature  
Mean Temperature 55 °F -  
Max Temperature 59 °F 62 °F 78 °F (2015)
Min Temperature 51 °F 47 °F 42 °F (1998)
Degree Days  
Heating Degree Days 10    
Growing Degree Days 5 (Base 50)    
Moisture  
Dew Point 54 °F    
Average Humidity 92    
Maximum Humidity 100    
Minimum Humidity 82    
Precipitation  
Precipitation 0.10 in - - ()
Sea Level Pressure  
Sea Level Pressure 29.57 in    
Wind  
Wind Speed 5 mph (North)    
Max Wind Speed 9 mph    
Max Gust Speed 20 mph    
Visibility 8 miles    
Events      
Averages and records for this station are not official NWS values.
T = Trace of Precipitation, MM = Missing Value Source: NWS Daily Summary

Daily Weather History Graph

Daily Weather History Graph

Search for Another Location

Airport or City:

Trip Planner

Search our weather history database for the weather conditions in past years. The results will help you decide how hot, cold, wet, or windy it might be!

Date:

Astronomy

Jun. 12, 2013 Rise Set
Actual Time 4:52 AM EDT 8:20 PM EDT
Civil Twilight 4:16 AM EDT 8:56 PM EDT
Nautical Twilight 3:29 AM EDT 9:43 PM EDT
Astronomical Twilight 2:28 AM EDT 10:44 PM EDT
Moon 8:34 AM EDT (6/12) 10:46 PM EDT (6/12)
Length of Visible Light 16h 39m
Length of Day
15h 27m
Waxing Crescent, 14% of the Moon is Illuminated
Jun 12
Waxing Crescent
Jun 16
First Quarter
Jun 23
Full
Jun 30
Last Quarter
Jul 8
New

Hourly Weather History & Observations

Time (EDT) Temp. Dew Point Humidity Pressure Visibility Wind Dir Wind Speed Gust Speed Precip Events Conditions
12:15 AM 51.8 °F 50.0 °F 94% 29.51 in 10.0 mi NNE 5.8 mph - N/A   Overcast
12:35 AM 53.6 °F 51.8 °F 94% 29.51 in 10.0 mi North 4.6 mph - N/A   Overcast
12:55 AM 53.6 °F 51.8 °F 94% 29.51 in 8.0 mi NNE 4.6 mph - N/A   Overcast
1:15 AM 53.6 °F 51.8 °F 94% 29.50 in 9.0 mi North 3.5 mph - N/A   Overcast
1:35 AM 53.6 °F 51.8 °F 94% 29.50 in 4.0 mi North 4.6 mph - N/A   Overcast
1:55 AM 53.6 °F 51.8 °F 94% 29.50 in 3.0 mi NNW 3.5 mph - N/A   Overcast
2:15 AM 51.8 °F 50.0 °F 94% 29.49 in 3.0 mi North 4.6 mph - N/A   Overcast
2:35 AM 51.8 °F 50.0 °F 94% 29.49 in 4.0 mi North 3.5 mph - N/A   Overcast
2:55 AM 53.6 °F 51.8 °F 94% 29.48 in 4.0 mi Calm Calm - N/A   Overcast
3:15 AM 53.6 °F 51.8 °F 94% 29.49 in 10.0 mi Calm Calm - N/A   Overcast
3:35 AM 53.6 °F 51.8 °F 94% 29.48 in 4.0 mi Calm Calm - N/A   Overcast
3:55 AM 53.6 °F 51.8 °F 94% 29.48 in 9.0 mi Calm Calm - N/A   Overcast
4:15 AM 53.6 °F 51.8 °F 94% 29.48 in 10.0 mi NW 3.5 mph - N/A   Overcast
4:35 AM 53.6 °F 51.8 °F 94% 29.48 in 10.0 mi WNW 4.6 mph - N/A   Overcast
4:55 AM 53.6 °F 51.8 °F 94% 29.48 in 10.0 mi NNW 3.5 mph - N/A   Overcast
5:15 AM 53.6 °F 53.6 °F 100% 29.48 in 10.0 mi NW 3.5 mph - N/A   Mostly Cloudy
5:35 AM 53.6 °F 51.8 °F 94% 29.48 in 10.0 mi NNW 3.5 mph - 0.01 in   Overcast
5:55 AM 53.6 °F 53.6 °F 100% 29.48 in 8.0 mi Calm Calm - 0.01 in   Overcast
6:15 AM 53.6 °F 53.6 °F 100% 29.49 in 5.0 mi Calm Calm - N/A   Overcast
6:35 AM 53.6 °F 53.6 °F 100% 29.50 in 9.0 mi Calm Calm - 0.03 in   Scattered Clouds
6:55 AM 53.6 °F 53.6 °F 100% 29.50 in 6.0 mi Calm Calm - 0.04 in   Clear
7:15 AM 53.6 °F 53.6 °F 100% 29.51 in 3.0 mi Calm Calm - 0.01 in   Mostly Cloudy
7:35 AM 53.6 °F 53.6 °F 100% 29.51 in 1.2 mi North 3.5 mph - 0.01 in   Overcast
7:55 AM 53.6 °F 53.6 °F 100% 29.51 in 2.0 mi Calm Calm - 0.02 in   Overcast
8:15 AM 53.6 °F 51.8 °F 94% 29.51 in 5.0 mi North 4.6 mph - N/A   Overcast
8:35 AM 53.6 °F 53.6 °F 100% 29.51 in 5.0 mi NNE 3.5 mph - N/A   Overcast
8:55 AM 53.6 °F 53.6 °F 100% 29.51 in 8.0 mi NNE 6.9 mph - N/A   Overcast
9:15 AM 55.4 °F 53.6 °F 94% 29.51 in 5.0 mi North 5.8 mph - N/A   Overcast
9:35 AM 55.4 °F 55.4 °F 100% 29.51 in 9.0 mi North 5.8 mph - N/A   Overcast
9:55 AM 55.4 °F 53.6 °F 94% 29.51 in 10.0 mi NNE 8.1 mph - N/A   Overcast
10:15 AM 55.4 °F 53.6 °F 94% 29.51 in 10.0 mi NNE 6.9 mph - N/A   Overcast
10:35 AM 57.2 °F 55.4 °F 94% 29.52 in 10.0 mi NNE 5.8 mph - N/A   Overcast
10:55 AM 57.2 °F 55.4 °F 94% 29.52 in 10.0 mi North 5.8 mph - N/A   Mostly Cloudy
11:15 AM 57.2 °F 55.4 °F 94% 29.53 in 4.0 mi NNE 9.2 mph - N/A   Overcast
11:55 AM 57.2 °F 55.4 °F 94% 29.54 in 4.0 mi NNE 9.2 mph - 0.01 in   Mostly Cloudy
12:15 PM 57.2 °F 55.4 °F 94% 29.54 in 8.0 mi NNE 9.2 mph - 0.01 in   Mostly Cloudy
12:35 PM 57.2 °F 55.4 °F 94% 29.54 in 10.0 mi North 6.9 mph - 0.01 in   Overcast
12:55 PM 59.0 °F 55.4 °F 88% 29.55 in 8.0 mi NNE 8.1 mph - 0.01 in   Mostly Cloudy
1:15 PM 57.2 °F 55.4 °F 94% 29.55 in 10.0 mi North 4.6 mph - 0.01 in   Overcast
1:35 PM 59.0 °F 55.4 °F 88% 29.55 in 6.0 mi North 4.6 mph - 0.01 in   Mostly Cloudy
1:55 PM 59.0 °F 57.2 °F 94% 29.56 in 8.0 mi NW 9.2 mph - 0.01 in   Overcast
2:15 PM 59.0 °F 57.2 °F 94% 29.56 in 10.0 mi North 4.6 mph - N/A   Overcast
2:35 PM 59.0 °F 57.2 °F 94% 29.57 in 10.0 mi North 3.5 mph - N/A   Overcast
2:55 PM 59.0 °F 55.4 °F 88% 29.57 in 10.0 mi North 6.9 mph - N/A   Overcast
3:15 PM 59.0 °F 55.4 °F 88% 29.57 in 10.0 mi North 8.1 mph - N/A   Overcast
3:35 PM 59.0 °F 55.4 °F 88% 29.58 in 10.0 mi North 5.8 mph 18.4 mph N/A   Overcast
3:55 PM 59.0 °F 55.4 °F 88% 29.59 in 10.0 mi North 8.1 mph - N/A   Overcast
4:15 PM 59.0 °F 55.4 °F 88% 29.60 in 10.0 mi North 5.8 mph - N/A   Overcast
4:35 PM 59.0 °F 55.4 °F 88% 29.60 in 10.0 mi North 5.8 mph - N/A   Mostly Cloudy
4:55 PM 59.0 °F 55.4 °F 88% 29.60 in 10.0 mi North 5.8 mph - N/A   Overcast
5:15 PM 59.0 °F 55.4 °F 88% 29.61 in 10.0 mi North 4.6 mph - N/A   Overcast
5:35 PM 59.0 °F 55.4 °F 88% 29.62 in 9.0 mi North 5.8 mph - N/A   Overcast
5:55 PM 59.0 °F 55.4 °F 88% 29.62 in 10.0 mi NNW 5.8 mph 17.3 mph N/A   Mostly Cloudy
6:15 PM 59.0 °F 55.4 °F 88% 29.63 in 10.0 mi NNW 6.9 mph - N/A   Overcast
6:35 PM 59.0 °F 55.4 °F 88% 29.64 in 10.0 mi NW 6.9 mph - N/A   Overcast
6:55 PM 59.0 °F 55.4 °F 88% 29.65 in 10.0 mi NNW 5.8 mph - N/A   Overcast
7:15 PM 59.0 °F 55.4 °F 88% 29.65 in 8.0 mi NNW 8.1 mph - N/A   Overcast
7:35 PM 59.0 °F 55.4 °F 88% 29.66 in 10.0 mi NNW 6.9 mph - N/A   Overcast
7:55 PM 57.2 °F 55.4 °F 94% 29.67 in 9.0 mi North 8.1 mph - N/A   Overcast
8:15 PM 57.2 °F 53.6 °F 88% 29.67 in 10.0 mi North 9.2 mph - N/A   Overcast
8:35 PM 57.2 °F 51.8 °F 82% 29.68 in 10.0 mi North 9.2 mph 17.3 mph N/A   Overcast
8:55 PM 57.2 °F 51.8 °F 82% 29.69 in 10.0 mi North 5.8 mph 19.6 mph N/A   Overcast
9:15 PM 57.2 °F 53.6 °F 88% 29.69 in 10.0 mi NNW 4.6 mph - N/A   Overcast
9:35 PM 57.2 °F 51.8 °F 82% 29.70 in 10.0 mi NNW 6.9 mph - N/A   Overcast
9:55 PM 57.2 °F 51.8 °F 82% 29.71 in 10.0 mi NNW 4.6 mph - N/A   Overcast
10:15 PM 57.2 °F 51.8 °F 82% 29.71 in 10.0 mi North 8.1 mph - N/A   Overcast
10:35 PM 57.2 °F 51.8 °F 82% 29.71 in 10.0 mi NNW 6.9 mph - N/A   Overcast
10:55 PM 57.2 °F 51.8 °F 82% 29.71 in 10.0 mi North 8.1 mph - N/A   Overcast
11:15 PM 57.2 °F 51.8 °F 82% 29.71 in 10.0 mi North 9.2 mph - N/A   Overcast
11:35 PM 57.2 °F 51.8 °F 82% 29.71 in 10.0 mi North 8.1 mph - N/A   Overcast
11:55 PM 57.2 °F 51.8 °F 82% 29.71 in 10.0 mi North 5.8 mph 19.6 mph N/A   Overcast